Retour au catalogue

HIMAWARI 4 AKM

ActifMEO
NORAD 20317·ROCKET BODY·🇯🇵 Japan

Lancé Sep 5, 1989 depuis Tanegashima Space Center

Loading…

Prochains Passages (prochaines 24 heures)

TLE

FraisSource: Space-Track

Époque: Sep 13, 2026, 11:46 UTC

1 20317U 89070C   26256.49077650 -.00000286  00000-0  00000-0 0  9993
2 20317  12.5135 336.6204 0239196  65.8543 299.0722  0.98765424 47532

Suivez HIMAWARI 4 AKM en temps réel avec AllMySat

Download on the App Store